Location: Unspecified
(48.7290°N, 19.1396°E)
Time: 09:50:56
(UTC+01:00)

ISS - Visible Passes

Search period start: 10 December 2022 00:00
Search period end: 20 December 2022 00:00
Orbit: 414 x 420 km, 51.6° (Epoch: 09 December)

Date Brightness Start Highest point End Pass type
(mag) Time Alt. Az. Time Alt. Az. Time Alt. Az.
15 Dec 0.3 06:41:17 10° SE 06:41:28 10° SE 06:41:40 10° SE visible
17 Dec -1.0 06:38:22 10° SSW 06:41:03 23° SE 06:43:46 10° E visible
18 Dec -0.7 05:50:51 10° S 05:52:51 15° SE 05:54:52 10° E visible
19 Dec -2.7 06:37:31 10° SW 06:40:45 48° SSE 06:44:01 10° ENE visible
